Year,Month,Day,Hour,Minute,Value (Times are PST for temperature in C)
2012,08,06,00,00,23.80
2012,08,06,00,01,23.70
2012,08,06,00,02,23.70
2012,08,06,00,03,23.60
2012,08,06,00,04,23.60
2012,08,06,00,05,23.50
2012,08,06,00,06,23.50
2012,08,06,00,07,23.40
2012,08,06,00,08,23.40
2012,08,06,00,09,23.40
2012,08,06,00,10,23.30
2012,08,06,00,11,23.30
2012,08,06,00,12,23.30
2012,08,06,00,13,23.30
2012,08,06,00,14,23.30
2012,08,06,00,15,23.20
2012,08,06,00,16,23.20
2012,08,06,00,17,23.20
2012,08,06,00,18,23.20
2012,08,06,00,19,23.10
2012,08,06,00,20,23.10
2012,08,06,00,21,23.10
2012,08,06,00,22,23.00
2012,08,06,00,23,22.90
2012,08,06,00,24,22.90
2012,08,06,00,25,22.90
2012,08,06,00,26,22.90
2012,08,06,00,27,22.90
2012,08,06,00,28,22.90
2012,08,06,00,29,22.90
2012,08,06,00,30,22.80
2012,08,06,00,31,22.80
2012,08,06,00,32,22.80
2012,08,06,00,33,22.80
2012,08,06,00,34,22.80
2012,08,06,00,35,22.80
2012,08,06,00,36,22.80
2012,08,06,00,37,22.80
2012,08,06,00,38,22.80
2012,08,06,00,39,22.80
2012,08,06,00,40,22.80
2012,08,06,00,41,22.80
2012,08,06,00,42,22.80
2012,08,06,00,43,22.80
2012,08,06,00,44,22.80
2012,08,06,00,45,22.80
2012,08,06,00,46,22.80
2012,08,06,00,47,22.80
2012,08,06,00,48,22.80
2012,08,06,00,49,22.70
2012,08,06,00,50,22.70
2012,08,06,00,51,22.70
2012,08,06,00,52,22.60
2012,08,06,00,53,22.50
2012,08,06,00,54,22.50
2012,08,06,00,55,22.40
2012,08,06,00,56,22.30
2012,08,06,00,57,22.30
2012,08,06,00,58,22.20
2012,08,06,00,59,22.20
2012,08,06,01,00,22.10
2012,08,06,01,01,22.10
2012,08,06,01,02,22.00
2012,08,06,01,03,21.90
2012,08,06,01,04,21.90
2012,08,06,01,05,21.80
2012,08,06,01,06,21.80
2012,08,06,01,07,21.80
2012,08,06,01,08,21.80
2012,08,06,01,09,21.80
2012,08,06,01,10,21.80
2012,08,06,01,11,21.90
2012,08,06,01,12,21.90
2012,08,06,01,13,22.00
2012,08,06,01,14,22.00
2012,08,06,01,15,22.00
2012,08,06,01,16,22.10
2012,08,06,01,17,22.10
2012,08,06,01,18,22.10
2012,08,06,01,19,22.10
2012,08,06,01,20,22.10
2012,08,06,01,21,22.10
2012,08,06,01,22,22.10
2012,08,06,01,23,22.10
2012,08,06,01,24,22.10
2012,08,06,01,25,22.10
2012,08,06,01,26,22.10
2012,08,06,01,27,22.10
2012,08,06,01,28,22.10
2012,08,06,01,29,22.10
2012,08,06,01,30,22.10
2012,08,06,01,31,22.00
2012,08,06,01,32,22.00
2012,08,06,01,33,21.90
2012,08,06,01,34,21.90
2012,08,06,01,35,21.90
2012,08,06,01,36,21.80
2012,08,06,01,37,21.80
2012,08,06,01,38,21.80
2012,08,06,01,39,21.80
2012,08,06,01,40,21.80
2012,08,06,01,41,21.80
2012,08,06,01,42,21.70
2012,08,06,01,43,21.70
2012,08,06,01,44,21.60
2012,08,06,01,45,21.60
2012,08,06,01,46,21.60
2012,08,06,01,47,21.50
2012,08,06,01,48,21.50
2012,08,06,01,49,21.50
2012,08,06,01,50,21.40
2012,08,06,01,51,21.40
2012,08,06,01,52,21.40
2012,08,06,01,53,21.40
2012,08,06,01,54,21.40
2012,08,06,01,55,21.40
2012,08,06,01,56,21.40
2012,08,06,01,57,21.40
2012,08,06,01,58,21.30
2012,08,06,01,59,21.30
2012,08,06,02,00,21.30
2012,08,06,02,01,21.30
2012,08,06,02,02,21.30
2012,08,06,02,03,21.30
2012,08,06,02,04,21.30
2012,08,06,02,05,21.30
2012,08,06,02,06,21.30
2012,08,06,02,07,21.30
2012,08,06,02,08,21.30
2012,08,06,02,09,21.30
2012,08,06,02,10,21.30
2012,08,06,02,11,21.30
2012,08,06,02,12,21.30
2012,08,06,02,13,21.30
2012,08,06,02,14,21.20
2012,08,06,02,15,21.20
2012,08,06,02,16,21.20
2012,08,06,02,17,21.20
2012,08,06,02,18,21.20
2012,08,06,02,19,21.20
2012,08,06,02,20,21.20
2012,08,06,02,21,21.20
2012,08,06,02,22,21.10
2012,08,06,02,23,21.10
2012,08,06,02,24,21.10
2012,08,06,02,25,21.10
2012,08,06,02,26,21.10
2012,08,06,02,27,21.00
2012,08,06,02,28,21.00
2012,08,06,02,29,20.90
2012,08,06,02,30,20.90
2012,08,06,02,31,20.80
2012,08,06,02,32,20.80
2012,08,06,02,33,20.80
2012,08,06,02,34,20.70
2012,08,06,02,35,20.70
2012,08,06,02,36,20.60
2012,08,06,02,37,20.60
2012,08,06,02,38,20.60
2012,08,06,02,39,20.50
2012,08,06,02,40,20.50
2012,08,06,02,41,20.40
2012,08,06,02,42,20.40
2012,08,06,02,43,20.30
2012,08,06,02,44,20.30
2012,08,06,02,45,20.30
2012,08,06,02,46,20.30
2012,08,06,02,47,20.30
2012,08,06,02,48,20.30
2012,08,06,02,49,20.20
2012,08,06,02,50,20.20
2012,08,06,02,51,20.20
2012,08,06,02,52,20.20
2012,08,06,02,53,20.20
2012,08,06,02,54,20.20
2012,08,06,02,55,20.20
2012,08,06,02,56,20.20
2012,08,06,02,57,20.10
2012,08,06,02,58,20.10
2012,08,06,02,59,20.10
2012,08,06,03,00,20.00
2012,08,06,03,01,20.00
2012,08,06,03,02,19.90
2012,08,06,03,03,19.90
2012,08,06,03,04,19.90
2012,08,06,03,05,19.80
2012,08,06,03,06,19.80
2012,08,06,03,07,19.80
2012,08,06,03,08,19.70
2012,08,06,03,09,19.70
2012,08,06,03,10,19.70
2012,08,06,03,11,19.60
2012,08,06,03,12,19.60
2012,08,06,03,13,19.50
2012,08,06,03,14,19.50
2012,08,06,03,15,19.40
2012,08,06,03,16,19.40
2012,08,06,03,17,19.30
2012,08,06,03,18,19.30
2012,08,06,03,19,19.30
2012,08,06,03,20,19.30
2012,08,06,03,21,19.20
2012,08,06,03,22,19.20
2012,08,06,03,23,19.20
2012,08,06,03,24,19.20
2012,08,06,03,25,19.20
2012,08,06,03,26,19.20
2012,08,06,03,27,19.20
2012,08,06,03,28,19.10
2012,08,06,03,29,19.10
2012,08,06,03,30,19.10
2012,08,06,03,31,19.10
2012,08,06,03,32,19.10
2012,08,06,03,33,19.10
2012,08,06,03,34,19.10
2012,08,06,03,35,19.00
2012,08,06,03,36,19.00
2012,08,06,03,37,19.00
2012,08,06,03,38,19.00
2012,08,06,03,39,19.00
2012,08,06,03,40,18.90
2012,08,06,03,41,18.90
2012,08,06,03,42,18.90
2012,08,06,03,43,18.90
2012,08,06,03,44,18.90
2012,08,06,03,45,18.90
2012,08,06,03,46,18.80
2012,08,06,03,47,18.80
2012,08,06,03,48,18.80
2012,08,06,03,49,18.80
2012,08,06,03,50,18.80
2012,08,06,03,51,18.80
2012,08,06,03,52,18.80
2012,08,06,03,53,18.70
2012,08,06,03,54,18.70
2012,08,06,03,55,18.70
2012,08,06,03,56,18.70
2012,08,06,03,57,18.70
2012,08,06,03,58,18.60
2012,08,06,03,59,18.60
2012,08,06,04,00,18.60
2012,08,06,04,01,18.60
2012,08,06,04,02,18.60
2012,08,06,04,03,18.60
2012,08,06,04,04,18.60
2012,08,06,04,05,18.60
2012,08,06,04,06,18.60
2012,08,06,04,07,18.50
2012,08,06,04,08,18.60
2012,08,06,04,09,18.60
2012,08,06,04,10,18.50
2012,08,06,04,11,18.50
2012,08,06,04,12,18.50
2012,08,06,04,13,18.50
2012,08,06,04,14,18.40
2012,08,06,04,15,18.40
2012,08,06,04,16,18.40
2012,08,06,04,17,18.40
2012,08,06,04,18,18.40
2012,08,06,04,19,18.40
2012,08,06,04,20,18.40
2012,08,06,04,21,18.40
2012,08,06,04,22,18.40
2012,08,06,04,23,18.40
2012,08,06,04,24,18.40
2012,08,06,04,25,18.30
2012,08,06,04,26,18.30
2012,08,06,04,27,18.30
2012,08,06,04,28,18.30
2012,08,06,04,29,18.30
2012,08,06,04,30,18.30
2012,08,06,04,31,18.20
2012,08,06,04,32,18.20
2012,08,06,04,33,18.20
2012,08,06,04,34,18.20
2012,08,06,04,35,18.20
2012,08,06,04,36,18.20
2012,08,06,04,37,18.10
2012,08,06,04,38,18.10
2012,08,06,04,39,18.10
2012,08,06,04,40,18.10
2012,08,06,04,41,18.10
2012,08,06,04,42,18.10
2012,08,06,04,43,18.10
2012,08,06,04,44,18.10
2012,08,06,04,45,18.00
2012,08,06,04,46,18.00
2012,08,06,04,47,18.00
2012,08,06,04,48,18.00
2012,08,06,04,49,18.00
2012,08,06,04,50,18.00
2012,08,06,04,51,18.00
2012,08,06,04,52,18.00
2012,08,06,04,53,18.00
2012,08,06,04,54,18.00
2012,08,06,04,55,18.00
2012,08,06,04,56,18.00
2012,08,06,04,57,18.00
2012,08,06,04,58,17.90
2012,08,06,04,59,17.90
2012,08,06,05,00,17.90
2012,08,06,05,01,17.90
2012,08,06,05,02,17.90
2012,08,06,05,03,17.90
2012,08,06,05,04,17.90
2012,08,06,05,05,17.80
2012,08,06,05,06,17.80
2012,08,06,05,07,17.80
2012,08,06,05,08,17.80
2012,08,06,05,09,17.80
2012,08,06,05,10,17.80
2012,08,06,05,11,17.80
2012,08,06,05,12,17.80
2012,08,06,05,13,17.80
2012,08,06,05,14,17.70
2012,08,06,05,15,17.70
2012,08,06,05,16,17.70
2012,08,06,05,17,17.70
2012,08,06,05,18,17.70
2012,08,06,05,19,17.70
2012,08,06,05,20,17.70
2012,08,06,05,21,17.70
2012,08,06,05,22,17.70
2012,08,06,05,23,17.70
2012,08,06,05,24,17.70
2012,08,06,05,25,17.70
2012,08,06,05,26,17.60
2012,08,06,05,27,17.60
2012,08,06,05,28,17.60
2012,08,06,05,29,17.60
2012,08,06,05,30,17.60
2012,08,06,05,31,17.60
2012,08,06,05,32,17.60
2012,08,06,05,33,17.60
2012,08,06,05,34,17.60
2012,08,06,05,35,17.60
2012,08,06,05,36,17.60
2012,08,06,05,37,17.60
2012,08,06,05,38,17.60
2012,08,06,05,39,17.60
2012,08,06,05,40,17.50
2012,08,06,05,41,17.50
2012,08,06,05,42,17.50
2012,08,06,05,43,17.50
2012,08,06,05,44,17.50
2012,08,06,05,45,17.50
2012,08,06,05,46,17.50
2012,08,06,05,47,17.50
2012,08,06,05,48,17.50
2012,08,06,05,49,17.50
2012,08,06,05,50,17.50
2012,08,06,05,51,17.50
2012,08,06,05,52,17.50
2012,08,06,05,53,17.50
2012,08,06,05,54,17.50
2012,08,06,05,55,17.50
2012,08,06,05,56,17.50
2012,08,06,05,57,17.50
2012,08,06,05,58,17.60
2012,08,06,05,59,17.60
2012,08,06,06,00,17.60
2012,08,06,06,01,17.60
2012,08,06,06,02,17.60
2012,08,06,06,03,17.60
2012,08,06,06,04,17.60
2012,08,06,06,05,17.60
2012,08,06,06,06,17.60
2012,08,06,06,07,17.60
2012,08,06,06,08,17.70
2012,08,06,06,09,17.70
2012,08,06,06,10,17.70
2012,08,06,06,11,17.70
2012,08,06,06,12,17.80
2012,08,06,06,13,17.80
2012,08,06,06,14,17.80
2012,08,06,06,15,17.80
2012,08,06,06,16,17.80
2012,08,06,06,17,17.80
2012,08,06,06,18,17.90
2012,08,06,06,19,17.90
2012,08,06,06,20,17.90
2012,08,06,06,21,17.90
2012,08,06,06,22,17.90
2012,08,06,06,23,17.90
2012,08,06,06,24,17.90
2012,08,06,06,25,17.90
2012,08,06,06,26,17.90
2012,08,06,06,27,17.90
2012,08,06,06,28,17.80
2012,08,06,06,29,17.80
2012,08,06,06,30,17.80
2012,08,06,06,31,17.80
2012,08,06,06,32,17.80
2012,08,06,06,33,17.80
2012,08,06,06,34,17.80
2012,08,06,06,35,17.80
2012,08,06,06,36,17.80
2012,08,06,06,37,17.90
2012,08,06,06,38,17.90
2012,08,06,06,39,17.90
2012,08,06,06,40,17.90
2012,08,06,06,41,17.90
2012,08,06,06,42,17.90
2012,08,06,06,43,17.90
2012,08,06,06,44,17.90
2012,08,06,06,45,18.00
2012,08,06,06,46,18.00
2012,08,06,06,47,18.00
2012,08,06,06,48,18.10
2012,08,06,06,49,18.10
2012,08,06,06,50,18.10
2012,08,06,06,51,18.20
2012,08,06,06,52,18.20
2012,08,06,06,53,18.20
2012,08,06,06,54,18.20
2012,08,06,06,55,18.20
2012,08,06,06,56,18.30
2012,08,06,06,57,18.30
2012,08,06,06,58,18.30
2012,08,06,06,59,18.30
2012,08,06,07,00,18.30
2012,08,06,07,01,18.30
2012,08,06,07,02,18.40
2012,08,06,07,03,18.40
2012,08,06,07,04,18.40
2012,08,06,07,05,18.40
2012,08,06,07,06,18.40
2012,08,06,07,07,18.40
2012,08,06,07,08,18.50
2012,08,06,07,09,18.50
2012,08,06,07,10,18.50
2012,08,06,07,11,18.60
2012,08,06,07,12,18.60
2012,08,06,07,13,18.60
2012,08,06,07,14,18.70
2012,08,06,07,15,18.70
2012,08,06,07,16,18.70
2012,08,06,07,17,18.80
2012,08,06,07,18,18.80
2012,08,06,07,19,18.80
2012,08,06,07,20,18.90
2012,08,06,07,21,18.90
2012,08,06,07,22,18.90
2012,08,06,07,23,19.00
2012,08,06,07,24,19.10
2012,08,06,07,25,19.10
2012,08,06,07,26,19.20
2012,08,06,07,27,19.20
2012,08,06,07,28,19.30
2012,08,06,07,29,19.30
2012,08,06,07,30,19.30
2012,08,06,07,31,19.30
2012,08,06,07,32,19.30
2012,08,06,07,33,19.30
2012,08,06,07,34,19.30
2012,08,06,07,35,19.30
2012,08,06,07,36,19.30
2012,08,06,07,37,19.40
2012,08,06,07,38,19.40
2012,08,06,07,39,19.40
2012,08,06,07,40,19.40
2012,08,06,07,41,19.40
2012,08,06,07,42,19.50
2012,08,06,07,43,19.50
2012,08,06,07,44,19.60
2012,08,06,07,45,19.70
2012,08,06,07,46,19.80
2012,08,06,07,47,19.90
2012,08,06,07,48,20.00
2012,08,06,07,49,20.20
2012,08,06,07,50,20.30
2012,08,06,07,51,20.40
2012,08,06,07,52,20.60
2012,08,06,07,53,20.70
2012,08,06,07,54,20.80
2012,08,06,07,55,20.90
2012,08,06,07,56,21.00
2012,08,06,07,57,21.10
2012,08,06,07,58,21.10
2012,08,06,07,59,21.20
2012,08,06,08,00,21.30
2012,08,06,08,01,21.50
2012,08,06,08,02,21.60
2012,08,06,08,03,21.70
2012,08,06,08,04,21.80
2012,08,06,08,05,22.00
2012,08,06,08,06,22.10
2012,08,06,08,07,22.20
2012,08,06,08,08,22.30
2012,08,06,08,09,22.40
2012,08,06,08,10,22.50
2012,08,06,08,11,22.50
2012,08,06,08,12,22.60
2012,08,06,08,13,22.70
2012,08,06,08,14,22.70
2012,08,06,08,15,22.60
2012,08,06,08,16,22.60
2012,08,06,08,17,22.60
2012,08,06,08,18,22.60
2012,08,06,08,19,22.70
2012,08,06,08,20,22.70
2012,08,06,08,21,22.80
2012,08,06,08,22,22.80
2012,08,06,08,23,22.80
2012,08,06,08,24,22.80
2012,08,06,08,25,22.80
2012,08,06,08,26,22.80
2012,08,06,08,27,22.80
2012,08,06,08,28,22.90
2012,08,06,08,29,22.90
2012,08,06,08,30,22.90
2012,08,06,08,31,22.90
2012,08,06,08,32,22.90
2012,08,06,08,33,22.90
2012,08,06,08,34,22.90
2012,08,06,08,35,23.00
2012,08,06,08,36,23.00
2012,08,06,08,37,23.00
2012,08,06,08,38,23.00
2012,08,06,08,39,23.10
2012,08,06,08,40,23.10
2012,08,06,08,41,23.10
2012,08,06,08,42,23.20
2012,08,06,08,43,23.20
2012,08,06,08,44,23.30
2012,08,06,08,45,23.30
2012,08,06,08,46,23.40
2012,08,06,08,47,23.40
2012,08,06,08,48,23.40
2012,08,06,08,49,23.40
2012,08,06,08,50,23.50
2012,08,06,08,51,23.50
2012,08,06,08,52,23.40
2012,08,06,08,53,23.40
2012,08,06,08,54,23.40
2012,08,06,08,55,23.40
2012,08,06,08,56,23.40
2012,08,06,08,57,23.40
2012,08,06,08,58,23.40
2012,08,06,08,59,23.40
2012,08,06,09,00,23.40
2012,08,06,09,01,23.40
2012,08,06,09,02,23.40
2012,08,06,09,03,23.40
2012,08,06,09,04,23.40
2012,08,06,09,05,23.40
2012,08,06,09,06,23.40
2012,08,06,09,07,23.40
2012,08,06,09,08,23.40
2012,08,06,09,09,23.40
2012,08,06,09,10,23.40
2012,08,06,09,11,23.40
2012,08,06,09,12,23.40
2012,08,06,09,13,23.40
2012,08,06,09,14,23.40
2012,08,06,09,15,23.40
2012,08,06,09,16,23.40
2012,08,06,09,17,23.30
2012,08,06,09,18,23.20
2012,08,06,09,19,23.10
2012,08,06,09,20,23.00
2012,08,06,09,21,23.00
2012,08,06,09,22,22.90
2012,08,06,09,23,22.90
2012,08,06,09,24,22.90
2012,08,06,09,25,23.00
2012,08,06,09,26,23.00
2012,08,06,09,27,23.00
2012,08,06,09,28,23.00
2012,08,06,09,29,23.10
2012,08,06,09,30,23.10
2012,08,06,09,31,23.20
2012,08,06,09,32,23.20
2012,08,06,09,33,23.20
2012,08,06,09,34,23.20
2012,08,06,09,35,23.20
2012,08,06,09,36,23.20
2012,08,06,09,37,23.20
2012,08,06,09,38,23.20
2012,08,06,09,39,23.20
2012,08,06,09,40,23.20
2012,08,06,09,41,23.20
2012,08,06,09,42,23.20
2012,08,06,09,43,23.20
2012,08,06,09,44,23.20
2012,08,06,09,45,23.20
2012,08,06,09,46,23.20
2012,08,06,09,47,23.20
2012,08,06,09,48,23.10
2012,08,06,09,49,23.10
2012,08,06,09,50,23.10
2012,08,06,09,51,23.10
2012,08,06,09,52,23.10
2012,08,06,09,53,23.20
2012,08,06,09,54,23.30
2012,08,06,09,55,23.30
2012,08,06,09,56,23.30
2012,08,06,09,57,23.40
2012,08,06,09,58,23.40
2012,08,06,09,59,23.40
2012,08,06,10,00,23.50
2012,08,06,10,01,23.50
2012,08,06,10,02,23.60
2012,08,06,10,03,23.70
2012,08,06,10,04,23.70
2012,08,06,10,05,23.60
2012,08,06,10,06,23.50
2012,08,06,10,07,23.30
2012,08,06,10,08,23.20
2012,08,06,10,09,23.20
2012,08,06,10,10,23.20
2012,08,06,10,11,23.20
2012,08,06,10,12,23.10
2012,08,06,10,13,23.10
2012,08,06,10,14,23.10
2012,08,06,10,15,23.20
2012,08,06,10,16,23.30
2012,08,06,10,17,23.40
2012,08,06,10,18,23.40
2012,08,06,10,19,23.50
2012,08,06,10,20,23.40
2012,08,06,10,21,23.40
2012,08,06,10,22,23.50
2012,08,06,10,23,23.60
2012,08,06,10,24,23.70
2012,08,06,10,25,23.70
2012,08,06,10,26,23.80
2012,08,06,10,27,23.80
2012,08,06,10,28,23.80
2012,08,06,10,29,23.70
2012,08,06,10,30,23.70
2012,08,06,10,31,23.70
2012,08,06,10,32,23.70
2012,08,06,10,33,23.60
2012,08,06,10,34,23.50
2012,08,06,10,35,23.50
2012,08,06,10,36,23.40
2012,08,06,10,37,23.30
2012,08,06,10,38,23.30
2012,08,06,10,39,23.30
2012,08,06,10,40,23.30
2012,08,06,10,41,23.30
2012,08,06,10,42,23.20
2012,08,06,10,43,23.20
2012,08,06,10,44,23.20
2012,08,06,10,45,23.20
2012,08,06,10,46,23.20
2012,08,06,10,47,23.30
2012,08,06,10,48,23.30
2012,08,06,10,49,23.20
2012,08,06,10,50,23.20
2012,08,06,10,51,23.10
2012,08,06,10,52,23.10
2012,08,06,10,53,23.20
2012,08,06,10,54,23.20
2012,08,06,10,55,23.30
2012,08,06,10,56,23.40
2012,08,06,10,57,23.40
2012,08,06,10,58,23.40
2012,08,06,10,59,23.40
2012,08,06,11,00,23.40
2012,08,06,11,01,23.30
2012,08,06,11,02,23.30
2012,08,06,11,03,23.30
2012,08,06,11,04,23.40
2012,08,06,11,05,23.40
2012,08,06,11,06,23.50
2012,08,06,11,07,23.60
2012,08,06,11,08,23.70
2012,08,06,11,09,23.70
2012,08,06,11,10,23.70
2012,08,06,11,11,23.70
2012,08,06,11,12,23.70
2012,08,06,11,13,23.80
2012,08,06,11,14,23.70
2012,08,06,11,15,23.70
2012,08,06,11,16,23.60
2012,08,06,11,17,23.60
2012,08,06,11,18,23.60
2012,08,06,11,19,23.50
2012,08,06,11,20,23.50
2012,08,06,11,21,23.30
2012,08,06,11,22,23.20
2012,08,06,11,23,23.20
2012,08,06,11,24,23.10
2012,08,06,11,25,22.90
2012,08,06,11,26,22.80
2012,08,06,11,27,22.70
2012,08,06,11,28,22.60
2012,08,06,11,29,22.60
2012,08,06,11,30,22.50
2012,08,06,11,31,22.50
2012,08,06,11,32,22.50
2012,08,06,11,33,22.60
2012,08,06,11,34,22.60
2012,08,06,11,35,22.60
2012,08,06,11,36,22.60
2012,08,06,11,37,22.60
2012,08,06,11,38,22.50
2012,08,06,11,39,22.50
2012,08,06,11,40,22.50
2012,08,06,11,41,22.60
2012,08,06,11,42,22.60
2012,08,06,11,43,22.70
2012,08,06,11,44,22.60
2012,08,06,11,45,22.40
2012,08,06,11,46,22.20
2012,08,06,11,47,22.10
2012,08,06,11,48,22.10
2012,08,06,11,49,22.00
2012,08,06,11,50,22.00
2012,08,06,11,51,21.90
2012,08,06,11,52,21.90
2012,08,06,11,53,21.80
2012,08,06,11,54,21.80
2012,08,06,11,55,21.70
2012,08,06,11,56,21.60
2012,08,06,11,57,21.50
2012,08,06,11,58,21.50
2012,08,06,11,59,21.40
2012,08,06,12,00,21.50
2012,08,06,12,01,21.50
2012,08,06,12,02,21.50
2012,08,06,12,03,21.60
2012,08,06,12,04,21.60
2012,08,06,12,05,21.60
2012,08,06,12,06,21.60
2012,08,06,12,07,21.60
2012,08,06,12,08,21.60
2012,08,06,12,09,21.60
2012,08,06,12,10,21.60
2012,08,06,12,11,21.60
2012,08,06,12,12,21.70
2012,08,06,12,13,21.70
2012,08,06,12,14,21.80
2012,08,06,12,15,21.80
2012,08,06,12,16,21.80
2012,08,06,12,17,21.90
2012,08,06,12,18,22.00
2012,08,06,12,19,22.10
2012,08,06,12,20,22.10
2012,08,06,12,21,22.20
2012,08,06,12,22,22.40
2012,08,06,12,23,22.50
2012,08,06,12,24,22.60
2012,08,06,12,25,22.70
2012,08,06,12,26,22.80
2012,08,06,12,27,22.90
2012,08,06,12,28,23.00
2012,08,06,12,29,23.20
2012,08,06,12,30,23.40
2012,08,06,12,31,23.50
2012,08,06,12,32,23.70
2012,08,06,12,33,23.70
2012,08,06,12,34,23.80
2012,08,06,12,35,23.80
2012,08,06,12,36,23.80
2012,08,06,12,37,23.90
2012,08,06,12,38,23.90
2012,08,06,12,39,24.10
2012,08,06,12,40,24.20
2012,08,06,12,41,24.30
2012,08,06,12,42,24.30
2012,08,06,12,43,24.40
2012,08,06,12,44,24.40
2012,08,06,12,45,24.40
2012,08,06,12,46,24.40
2012,08,06,12,47,24.50
2012,08,06,12,48,24.60
2012,08,06,12,49,24.70
2012,08,06,12,50,24.70
2012,08,06,12,51,24.80
2012,08,06,12,52,24.80
2012,08,06,12,53,24.90
2012,08,06,12,54,25.00
2012,08,06,12,55,25.10
2012,08,06,12,56,25.20
2012,08,06,12,57,25.30
2012,08,06,12,58,25.30
2012,08,06,12,59,25.40
2012,08,06,13,00,25.40
2012,08,06,13,01,25.50
2012,08,06,13,02,25.60
2012,08,06,13,03,25.60
2012,08,06,13,04,25.70
2012,08,06,13,05,25.70
2012,08,06,13,06,25.70
2012,08,06,13,07,25.70
2012,08,06,13,08,25.60
2012,08,06,13,09,25.50
2012,08,06,13,10,25.40
2012,08,06,13,11,25.40
2012,08,06,13,12,25.40
2012,08,06,13,13,25.30
2012,08,06,13,14,25.30
2012,08,06,13,15,25.20
2012,08,06,13,16,25.20
2012,08,06,13,17,25.20
2012,08,06,13,18,25.30
2012,08,06,13,19,25.40
2012,08,06,13,20,25.50
2012,08,06,13,21,25.60
2012,08,06,13,22,25.60
2012,08,06,13,23,25.60
2012,08,06,13,24,25.50
2012,08,06,13,25,25.50
2012,08,06,13,26,25.40
2012,08,06,13,27,25.20
2012,08,06,13,28,25.10
2012,08,06,13,29,24.90
2012,08,06,13,30,24.80
2012,08,06,13,31,24.80
2012,08,06,13,32,24.60
2012,08,06,13,33,24.50
2012,08,06,13,34,24.40
2012,08,06,13,35,24.30
2012,08,06,13,36,24.30
2012,08,06,13,37,24.20
2012,08,06,13,38,24.10
2012,08,06,13,39,24.00
2012,08,06,13,40,24.00
2012,08,06,13,41,23.90
2012,08,06,13,42,23.90
2012,08,06,13,43,23.90
2012,08,06,13,44,23.90
2012,08,06,13,45,23.80
2012,08,06,13,46,23.80
2012,08,06,13,47,23.80
2012,08,06,13,48,23.70
2012,08,06,13,49,23.70
2012,08,06,13,50,23.70
2012,08,06,13,51,23.60
2012,08,06,13,52,23.50
2012,08,06,13,53,23.50
2012,08,06,13,54,23.40
2012,08,06,13,55,23.40
2012,08,06,13,56,23.40
2012,08,06,13,57,23.40
2012,08,06,13,58,23.40
2012,08,06,13,59,23.40
2012,08,06,14,00,23.40
2012,08,06,14,01,23.40
2012,08,06,14,02,23.50
2012,08,06,14,03,23.60
2012,08,06,14,04,23.60
2012,08,06,14,05,23.70
2012,08,06,14,06,23.70
2012,08,06,14,07,23.70
2012,08,06,14,08,23.70
2012,08,06,14,09,23.60
2012,08,06,14,10,23.60
2012,08,06,14,11,23.60
2012,08,06,14,12,23.60
2012,08,06,14,13,23.60
2012,08,06,14,14,23.60
2012,08,06,14,15,23.60
2012,08,06,14,16,23.60
2012,08,06,14,17,23.70
2012,08,06,14,18,23.60
2012,08,06,14,19,23.60
2012,08,06,14,20,23.60
2012,08,06,14,21,23.60
2012,08,06,14,22,23.60
2012,08,06,14,23,23.70
2012,08,06,14,24,23.80
2012,08,06,14,25,23.80
2012,08,06,14,26,23.90
2012,08,06,14,27,24.00
2012,08,06,14,28,24.10
2012,08,06,14,29,24.20
2012,08,06,14,30,24.20
2012,08,06,14,31,24.30
2012,08,06,14,32,24.30
2012,08,06,14,33,24.40
2012,08,06,14,34,24.40
2012,08,06,14,35,24.40
2012,08,06,14,36,24.40
2012,08,06,14,37,24.30
2012,08,06,14,38,24.30
2012,08,06,14,39,24.20
2012,08,06,14,40,24.10
2012,08,06,14,41,24.10
2012,08,06,14,42,24.00
2012,08,06,14,43,24.00
2012,08,06,14,44,24.00
2012,08,06,14,45,24.00
2012,08,06,14,46,24.00
2012,08,06,14,47,24.10
2012,08,06,14,48,24.10
2012,08,06,14,49,24.10
2012,08,06,14,50,24.10
2012,08,06,14,51,24.20
2012,08,06,14,52,24.20
2012,08,06,14,53,24.20
2012,08,06,14,54,24.20
2012,08,06,14,55,24.20
2012,08,06,14,56,24.20
2012,08,06,14,57,24.30
2012,08,06,14,58,24.30
2012,08,06,14,59,24.30
2012,08,06,15,00,24.30
2012,08,06,15,01,24.30
2012,08,06,15,02,24.30
2012,08,06,15,03,24.30
2012,08,06,15,04,24.40
2012,08,06,15,05,24.40
2012,08,06,15,06,24.40
2012,08,06,15,07,24.40
2012,08,06,15,08,24.40
2012,08,06,15,09,24.40
2012,08,06,15,10,24.50
2012,08,06,15,11,24.50
2012,08,06,15,12,24.50
2012,08,06,15,13,24.60
2012,08,06,15,14,24.60
2012,08,06,15,15,24.70
2012,08,06,15,16,24.70
2012,08,06,15,17,24.70
2012,08,06,15,18,24.80
2012,08,06,15,19,24.80
2012,08,06,15,20,24.90
2012,08,06,15,21,24.90
2012,08,06,15,22,24.90
2012,08,06,15,23,24.90
2012,08,06,15,24,24.90
2012,08,06,15,25,24.90
2012,08,06,15,26,24.80
2012,08,06,15,27,24.80
2012,08,06,15,28,24.80
2012,08,06,15,29,24.80
2012,08,06,15,30,24.80
2012,08,06,15,31,24.80
2012,08,06,15,32,24.80
2012,08,06,15,33,24.80
2012,08,06,15,34,24.80
2012,08,06,15,35,24.80
2012,08,06,15,36,24.70
2012,08,06,15,37,24.70
2012,08,06,15,38,24.70
2012,08,06,15,39,24.60
2012,08,06,15,40,24.60
2012,08,06,15,41,24.60
2012,08,06,15,42,24.60
2012,08,06,15,43,24.60
2012,08,06,15,44,24.60
2012,08,06,15,45,24.60
2012,08,06,15,46,24.60
2012,08,06,15,47,24.50
2012,08,06,15,48,24.50
2012,08,06,15,49,24.40
2012,08,06,15,50,24.30
2012,08,06,15,51,24.30
2012,08,06,15,52,24.20
2012,08,06,15,53,24.20
2012,08,06,15,54,24.10
2012,08,06,15,55,24.10
2012,08,06,15,56,24.00
2012,08,06,15,57,23.90
2012,08,06,15,58,23.90
2012,08,06,15,59,23.80
2012,08,06,16,00,23.80
2012,08,06,16,01,23.80
2012,08,06,16,02,23.80
2012,08,06,16,03,23.80
2012,08,06,16,04,23.80
2012,08,06,16,05,23.80
2012,08,06,16,06,23.80
2012,08,06,16,07,23.80
2012,08,06,16,08,23.80
2012,08,06,16,09,23.80
2012,08,06,16,10,23.80
2012,08,06,16,11,23.80
2012,08,06,16,12,23.80
2012,08,06,16,13,23.80
2012,08,06,16,14,23.80
2012,08,06,16,15,23.80
2012,08,06,16,16,23.70
2012,08,06,16,17,23.70
2012,08,06,16,18,23.60
2012,08,06,16,19,23.50
2012,08,06,16,20,23.40
2012,08,06,16,21,23.30
2012,08,06,16,22,23.30
2012,08,06,16,23,23.20
2012,08,06,16,24,23.20
2012,08,06,16,25,23.20
2012,08,06,16,26,23.20
2012,08,06,16,27,23.10
2012,08,06,16,28,23.10
2012,08,06,16,29,23.10
2012,08,06,16,30,23.10
2012,08,06,16,31,23.10
2012,08,06,16,32,23.10
2012,08,06,16,33,23.10
2012,08,06,16,34,23.10
2012,08,06,16,35,23.10
2012,08,06,16,36,23.10
2012,08,06,16,37,23.10
2012,08,06,16,38,23.10
2012,08,06,16,39,23.10
2012,08,06,16,40,23.10
2012,08,06,16,41,23.10
2012,08,06,16,42,23.10
2012,08,06,16,43,23.00
2012,08,06,16,44,23.00
2012,08,06,16,45,23.00
2012,08,06,16,46,23.00
2012,08,06,16,47,23.00
2012,08,06,16,48,23.00
2012,08,06,16,49,23.00
2012,08,06,16,50,23.10
2012,08,06,16,51,23.10
2012,08,06,16,52,23.10
2012,08,06,16,53,23.20
2012,08,06,16,54,23.20
2012,08,06,16,55,23.20
2012,08,06,16,56,23.20
2012,08,06,16,57,23.10
2012,08,06,16,58,23.10
2012,08,06,16,59,23.00
2012,08,06,17,00,23.00
2012,08,06,17,01,22.90
2012,08,06,17,02,22.80
2012,08,06,17,03,22.80
2012,08,06,17,04,22.80
2012,08,06,17,05,22.80
2012,08,06,17,06,22.70
2012,08,06,17,07,22.70
2012,08,06,17,08,22.70
2012,08,06,17,09,22.70
2012,08,06,17,10,22.70
2012,08,06,17,11,22.60
2012,08,06,17,12,22.50
2012,08,06,17,13,22.40
2012,08,06,17,14,22.40
2012,08,06,17,15,22.30
2012,08,06,17,16,22.30
2012,08,06,17,17,22.30
2012,08,06,17,18,22.30
2012,08,06,17,19,22.30